TimeEST,TemperatureF,Dew PointF,Humidity,Sea Level PressureIn,VisibilityMPH,Wind Direction,Wind SpeedMPH,Gust SpeedMPH,PrecipitationIn,Events,Conditions,WindDirDegrees,DateUTC
12:53 AM,35.1,26.1,70,29.95,10.0,NNW,6.9,-,N/A,,Overcast,340,2013-02-25 05:53:00
1:53 AM,34.0,25.0,70,29.96,10.0,NNW,9.2,-,N/A,,Scattered Clouds,340,2013-02-25 06:53:00
2:53 AM,34.0,25.0,70,29.97,10.0,NNW,9.2,-,N/A,,Clear,340,2013-02-25 07:53:00
3:53 AM,33.1,24.1,70,29.99,10.0,NNW,6.9,-,N/A,,Clear,340,2013-02-25 08:53:00
4:53 AM,32.0,24.1,73,30.02,10.0,NNW,5.8,-,N/A,,Clear,340,2013-02-25 09:53:00
5:53 AM,32.0,24.1,73,30.04,10.0,Calm,Calm,-,N/A,,Clear,0,2013-02-25 10:53:00
6:53 AM,30.9,24.1,76,30.06,10.0,Calm,Calm,-,N/A,,Clear,0,2013-02-25 11:53:00
7:53 AM,34.0,24.1,67,30.08,10.0,North,5.8,-,N/A,,Clear,350,2013-02-25 12:53:00
8:53 AM,36.0,25.0,64,30.10,10.0,NNE,4.6,-,N/A,,Clear,20,2013-02-25 13:53:00
9:53 AM,37.9,26.1,62,30.10,10.0,NNE,4.6,-,N/A,,Clear,20,2013-02-25 14:53:00
10:53 AM,39.9,26.1,58,30.11,10.0,NNE,5.8,-,N/A,,Clear,20,2013-02-25 15:53:00
11:53 AM,41.0,27.0,57,30.12,10.0,NNE,8.1,-,N/A,,Clear,30,2013-02-25 16:53:00
1:53 PM,43.0,28.0,56,30.13,10.0,NNE,10.4,-,N/A,,Clear,20,2013-02-25 18:53:00
3:53 PM,42.1,27.0,55,30.16,10.0,North,5.8,-,N/A,,Overcast,360,2013-02-25 20:53:00
4:53 PM,41.0,27.0,57,30.17,10.0,NNE,6.9,-,N/A,,Overcast,20,2013-02-25 21:53:00
5:53 PM,39.9,28.0,63,30.18,10.0,NNE,9.2,-,N/A,,Overcast,20,2013-02-25 22:53:00
6:53 PM,39.9,28.0,63,30.22,10.0,North,3.5,-,N/A,,Overcast,350,2013-02-25 23:53:00
7:53 PM,37.9,28.9,70,30.22,10.0,Calm,Calm,-,N/A,,Mostly Cloudy,0,2013-02-26 00:53:00
8:53 PM,36.0,28.0,73,30.23,10.0,Calm,Calm,-,N/A,,Clear,0,2013-02-26 01:53:00
9:53 PM,34.0,28.9,82,30.23,10.0,Calm,Calm,-,N/A,,Overcast,0,2013-02-26 02:53:00
10:53 PM,35.1,30.0,82,30.25,10.0,Calm,Calm,-,N/A,,Overcast,0,2013-02-26 03:53:00
11:53 PM,34.0,30.0,85,30.25,10.0,Calm,Calm,-,N/A,,Overcast,0,2013-02-26 04:53:00